Weather History for Barking Sands, HI

Change the Weather History Date:

Sunday, September 1, 2013

  Actual Average Record
Temperature  
Mean Temperature 79 °F -  
Max Temperature 86 °F 89 °F 92 °F (1964)
Min Temperature 72 °F 69 °F 65 °F (1976)
Cooling Degree Days 14    
Growing Degree Days 29 (Base 50)    
Moisture  
Dew Point 65 °F    
Average Humidity 59    
Maximum Humidity 71    
Minimum Humidity 49    
Precipitation  
Precipitation 0.00 in - - ()
Sea Level Pressure  
Sea Level Pressure 30.00 in    
Wind  
Wind Speed 5 mph (WSW)    
Max Wind Speed 13 mph    
Max Gust Speed -    
Visibility 10 miles    
Events      
Averages and records for this station are not official NWS values.
T = Trace of Precipitation, MM = Missing Value Source: NWS Daily Summary

Daily Weather History Graph

Daily Weather History Graph

Search for Another Location

Airport:

Trip Planner

Search our weather history database for the weather conditions in past years. The results will help you decide how hot, cold, wet, or windy it might be!

Date:

Astronomy

Sep. 01, 2013 Rise Set
Actual Time 6:22 AM HST 6:55 PM HST
Civil Twilight 5:59 AM HST 7:17 PM HST
Nautical Twilight 5:33 AM HST 7:44 PM HST
Astronomical Twilight 5:06 AM HST 8:11 PM HST
Moon 3:10 AM HST (9/1) 4:26 PM HST (9/1)
Length of Visible Light 13h 18m
Length of Day
12h 33m
Waning Crescent, 12% of the Moon is Illuminated
Sep 1
Waning Crescent
Sep 5
New
Sep 12
First Quarter
Sep 19
Full
Sep 26
Last Quarter

Hourly Weather History & Observations

Time (HST) Temp. Heat Index Dew Point Humidity Pressure Visibility Wind Dir Wind Speed Gust Speed Precip Events Conditions
12:56 AM 73.9 °F - 60.1 °F 62% 30.01 in 10.0 mi Calm Calm - N/A   Partly Cloudy
1:56 AM 73.9 °F - 60.1 °F 62% 30.01 in 10.0 mi SE 6.9 mph - N/A   Overcast
2:56 AM 75.9 °F - 61.0 °F 60% 29.98 in 10.0 mi Calm Calm - N/A   Mostly Cloudy
3:56 AM 75.0 °F - 62.1 °F 64% 29.98 in 10.0 mi Calm Calm - N/A   Mostly Cloudy
4:56 AM 73.9 °F - 62.1 °F 66% 29.99 in 10.0 mi East 4.6 mph - N/A   Scattered Clouds
5:56 AM 72.0 °F - 62.1 °F 71% 30.00 in 10.0 mi ESE 3.5 mph - N/A   Partly Cloudy
6:56 AM 73.0 °F - 63.0 °F 71% 30.01 in 10.0 mi Calm Calm - N/A   Scattered Clouds
7:56 AM 79.0 °F - 66.0 °F 64% 30.02 in 10.0 mi West 4.6 mph - N/A   Partly Cloudy
8:56 AM 81.0 °F 82.7 °F 64.9 °F 58% 30.03 in 10.0 mi South 8.1 mph - N/A   Partly Cloudy
9:56 AM 81.0 °F 82.7 °F 64.9 °F 58% 30.04 in 10.0 mi East 9.2 mph - N/A   Overcast
10:56 AM 82.9 °F 85.0 °F 66.0 °F 56% 30.02 in 10.0 mi WNW 8.1 mph - N/A   Mostly Cloudy
11:56 AM 84.0 °F 87.0 °F 68.0 °F 58% 30.01 in 10.0 mi NW 12.7 mph - N/A   Partly Cloudy
12:56 PM 86.0 °F 88.8 °F 66.9 °F 53% 29.99 in 10.0 mi WNW 12.7 mph - N/A   Partly Cloudy
1:56 PM 84.9 °F 88.2 °F 68.0 °F 57% 29.97 in 10.0 mi West 11.5 mph - N/A   Partly Cloudy
2:56 PM 84.9 °F 87.6 °F 66.9 °F 55% 29.96 in 10.0 mi West 11.5 mph - N/A   Partly Cloudy
3:56 PM 84.9 °F 87.1 °F 66.0 °F 53% 29.95 in 10.0 mi West 11.5 mph - N/A   Clear
4:56 PM 86.0 °F 87.6 °F 64.9 °F 49% 29.95 in 10.0 mi WNW 9.2 mph - N/A   Partly Cloudy
5:56 PM 84.0 °F 85.8 °F 64.9 °F 53% 29.96 in 10.0 mi NNW 6.9 mph - N/A   Clear
6:56 PM 82.9 °F 84.6 °F 64.9 °F 54% 29.97 in 10.0 mi Variable 3.5 mph - N/A   Partly Cloudy
7:56 PM 82.0 °F 84.1 °F 66.0 °F 58% 29.99 in 10.0 mi West 4.6 mph - N/A   Mostly Cloudy
8:56 PM 81.0 °F 82.7 °F 64.9 °F 58% 30.01 in 10.0 mi South 4.6 mph - N/A   Overcast
9:56 PM 81.0 °F 83.0 °F 66.0 °F 60% 30.02 in 10.0 mi Calm Calm - N/A   Overcast
10:56 PM 79.0 °F - 64.9 °F 62% 30.02 in 10.0 mi Calm Calm - N/A   Mostly Cloudy
11:56 PM 77.0 °F - 64.0 °F 64% 30.02 in 10.0 mi SSE 3.5 mph - N/A   Scattered Clouds